Location: Bessat
(45.8735°N, 1.9924°E)
Time: 09:11:42
(UTC+00:00)

Terra - Pass Details

Date: 11 May 2021
Orbit: 701 x 703 km, 98.2° (Epoch: 15 June)

Event Time Altitude Azimuth Distance (km) Brightness Sun altitude
Exits shadow 23:11:39 14° 256° (WSW) 1,936 4.0 -25.5°
Maximum altitude 23:12:42 14° 271° (W) 1,888 4.1 -25.5°
Drops below altitude 10° 23:15:17 10° 304° (NW) 2,178 4.9 -25.6°
Sets 23:18:36 0° 329° (NNW) 3,103 6.2 -25.6°
